Theta_e
311 309 308 308 307 305 304 302 303 304 304 305 306 306 307 307 308 308 309 311 311 311 312 312 312 313 313 315 319 328 330 330 330 331 331 330 331 332 333 332 333 331 330
311 310 309 307 307 305 305 302 302 303 303 304 305 305 305 306 307 309 310 312 312 312 312 312 314 313 313 315 316 323 328 329 328 330 329 331 328 328 331 331 330 329 327
312 311 310 309 307 306 306 301 301 302 303 303 304 305 306 307 309 309 310 311 312 313 312 312 313 313 314 315 317 324 328 328 329 328 327 328 328 325 323 324 325 324 325
311 310 309 309 308 307 306 302 300 301 301 303 304 305 305 307 308 309 309 311 313 314 313 312 314 314 316 318 320 324 327 327 327 324 324 324 324 325 326 323 324 324 323
311 311 310 309 308 307 307 303 300 300 300 303 304 305 306 307 308 309 310 311 313 312 312 315 316 316 318 319 323 324 325 326 326 326 324 321 320 321 323 322 321 321 322
312 311 309 308 308 308 306 303 300 299 299 302 305 305 305 306 307 308 308 310 310 310 311 312 314 317 317 320 321 322 321 322 324 325 324 324 322 320 319 321 322 322 320
313 313 312 311 309 308 308 304 300 299 299 301 304 305 305 305 306 306 306 307 307 308 309 309 311 314 316 317 318 318 318 319 320 321 320 318 317 318 320 320 319 318 317
312 312 311 310 310 309 308 305 301 299 299 299 303 304 304 305 306 305 305 305 304 306 306 308 308 309 311 312 313 313 314 314 315 315 316 314 313 313 313 314 315 316 315
311 311 310 309 309 309 308 306 302 299 298 298 301 303 303 304 305 304 304 304 303 304 306 306 307 308 307 308 308 306 307 307 307 308 309 308 307 307 307 308 310 312 314
311 311 310 309 307 307 307 306 302 299 298 298 298 300 301 301 302 302 302 301 301 300 301 301 303 303 303 302 302 302 301 302 301 302 302 302 302 301 301 301 301 302 305
307 307 307 306 305 304 305 304 302 300 298 297 297 298 300 299 298 299 298 298 298 297 298 299 299 299 299 298 298 298 298 298 298 298 298 298 297 297 297 298 299 299 300
306 305 305 304 304 304 304 304 302 300 298 297 296 297 297 297 297 297 296 295 295 295 295 296 296 296 296 295 296 295 295 296 296 296 296 295 295 296 296 296 297 297 296
306 305 305 305 305 305 304 303 302 301 299 296 295 296 296 295 296 296 295 294 293 293 293 293 294 294 294 294 294 294 294 294 294 294 294 293 294 295 295 295 295 295 294
306 306 305 305 304 305 303 302 301 300 299 296 295 295 295 295 294 294 293 292 292 292 292 292 293 293 293 293 293 293 293 292 292 292 292 292 293 293 294 294 294 293 294
305 305 305 306 305 304 304 303 301 300 298 296 295 294 294 294 293 292 292 291 291 291 291 291 291 292 293 293 293 292 292 292 291 291 291 291 291 290 291 292 293 293 293
304 306 306 306 306 305 303 303 302 300 298 296 295 294 294 292 292 291 291 291 291 291 291 291 291 292 291 292 292 293 292 291 291 291 290 290 290 290 289 289 291 291 291
305 306 306 306 306 305 302 301 302 300 298 296 296 295 293 292 291 291 291 291 291 291 290 291 291 291 291 290 293 293 292 292 291 290 290 290 289 289 289 290 290 290 290
307 306 306 305 304 304 302 301 301 300 298 297 295 294 293 292 292 291 291 291 291 290 290 290 290 290 290 289 292 293 292 291 290 290 290 289 289 289 289 290 290 290 290
305 304 303 304 304 303 302 301 300 300 298 297 297 295 294 292 292 291 291 291 290 290 290 290 290 290 290 289 291 293 291 290 290 289 289 289 289 288 289 290 290 289 289
304 304 303 303 303 303 302 301 300 301 299 299 297 296 294 293 292 292 291 291 290 290 290 290 289 289 289 289 291 292 291 290 289 289 289 287 288 288 289 289 289 289 289
303 303 303 303 303 302 301 300 300 300 300 298 298 296 294 293 293 292 291 291 290 289 289 289 289 289 289 289 289 291 290 289 289 289 289 288 287 288 288 287 288 288 287
302 302 302 302 302 301 301 300 300 300 299 298 296 295 294 293 292 292 291 290 290 289 289 289 289 288 288 288 288 289 290 289 289 289 288 288 287 287 286 286 286 286 285
301 301 301 301 301 301 301 300 299 299 299 298 296 295 294 293 292 291 291 290 289 289 289 289 288 288 287 287 288 288 289 289 289 288 288 287 286 285 284 284 284 284 284
300 300 300 300 300 300 299 299 299 298 298 297 297 295 294 293 292 291 291 290 289 289 289 289 288 288 287 287 287 288 289 289 288 287 287 286 285 284 284 283 283 284 283
298 299 299 299 298 298 298 298 297 297 297 296 295 295 293 293 292 291 290 290 290 289 289 288 288 288 287 287 287 287 287 288 287 287 286 285 285 284 284 284 283 283 283
298 297 297 297 297 296 296 296 296 296 296 296 296 295 293 292 292 291 290 290 289 289 289 288 288 288 288 288 288 287 287 287 287 286 286 285 284 284 284 283 283 283 282
Wind_Speed
2 3 3 3 5 6 8 9 11 13 14 15 17 17 17 19 17 18 19 19 16 16 17 18 18 18 21 20 19 16 19 16 16 8 16 18 16 20 18 17 16 14 12
5 5 3 4 6 8 7 8 9 12 12 13 14 13 18 17 20 19 20 16 16 15 15 16 18 18 19 19 19 18 14 13 12 7 4 3 5 4 9 10 12 12 9
6 5 6 7 8 8 6 6 8 11 11 11 12 12 14 15 14 19 17 19 18 14 16 17 15 15 16 17 17 16 15 11 7 7 5 2 2 2 3 3 8 8 5
6 7 9 9 8 7 6 6 6 8 9 10 10 11 13 15 17 16 18 19 14 15 16 14 15 15 15 15 15 13 10 10 7 15 16 15 9 3 2 0 2 2 3
3 5 7 9 9 9 8 8 7 7 8 9 8 10 11 12 14 15 16 16 15 17 19 13 8 9 9 9 8 7 5 8 12 10 9 7 12 7 3 2 5 9 7
5 7 8 9 11 10 9 8 7 8 8 8 8 9 10 12 13 14 13 14 14 16 19 16 9 3 1 4 3 5 7 5 3 6 6 6 4 5 5 5 5 5 7
6 6 7 9 11 11 10 9 8 9 8 8 8 8 8 9 11 11 11 11 11 16 16 15 13 10 6 3 2 3 4 4 3 3 1 3 5 6 1 4 2 2 3
5 6 8 10 11 11 10 10 10 11 9 8 8 8 8 7 8 8 9 8 7 9 12 10 10 10 8 6 6 5 6 3 3 3 2 3 3 3 3 4 3 3 3
7 9 11 11 12 12 12 13 12 12 11 10 9 9 8 7 8 8 6 5 5 5 5 7 7 6 5 5 5 6 6 5 4 3 2 1 2 1 1 2 3 2 2
12 13 15 17 18 15 12 13 14 14 13 12 11 10 9 8 8 8 8 7 5 3 3 3 2 2 3 4 4 4 4 3 4 4 3 3 2 2 3 3 2 2 7
15 14 15 16 14 13 13 15 16 16 16 14 13 12 10 9 8 7 6 6 7 6 4 2 2 2 1 0 2 2 2 2 3 4 4 4 4 4 3 2 1 2 3
15 14 16 15 13 12 12 14 16 18 17 15 14 13 12 11 10 9 8 6 5 4 4 5 3 1 1 1 1 2 3 3 3 3 3 3 3 3 3 3 3 3 4
15 14 13 13 14 13 13 13 16 19 17 16 16 15 15 14 13 11 9 8 6 5 4 3 3 3 1 1 1 2 2 3 4 3 3 2 2 2 2 2 2 1 2
13 14 14 17 19 17 15 14 15 17 18 18 18 18 18 16 15 13 11 9 8 7 6 5 5 5 3 2 2 2 2 2 2 3 3 2 2 2 1 0 1 2 3
14 15 15 15 22 22 19 14 14 14 17 20 21 22 18 16 15 14 12 10 9 8 7 6 6 6 6 5 4 3 2 2 1 1 1 1 0 1 2 3 3 5 6
13 14 15 19 22 23 19 16 14 13 15 21 23 19 18 17 16 14 12 11 11 10 9 8 8 8 7 8 8 7 6 4 2 2 1 1 2 3 4 3 4 6 7
15 17 17 22 25 26 20 16 14 13 13 20 22 21 20 19 17 15 14 15 13 11 10 9 9 9 8 10 8 10 6 5 4 3 2 2 4 5 5 5 6 8 9
22 21 23 28 29 28 24 22 17 15 16 18 22 24 22 21 19 19 18 16 14 13 12 11 10 9 9 10 9 11 7 5 5 4 4 3 4 5 6 7 9 10 10
25 27 30 31 30 28 26 22 21 20 17 20 22 24 24 26 23 22 20 19 17 15 15 13 12 12 11 13 11 10 7 6 6 5 5 5 5 5 6 9 11 13 13
29 29 33 33 31 29 27 24 22 22 22 24 22 22 26 27 26 25 24 21 20 18 15 15 14 14 12 14 14 13 10 9 8 7 7 8 7 6 6 9 11 14 13
32 33 30 28 30 31 27 24 26 24 26 25 25 21 23 28 30 27 24 22 20 16 16 16 15 15 14 14 16 15 13 11 9 9 8 7 7 7 8 8 9 10 13
27 29 27 27 29 28 26 25 26 28 24 20 21 20 22 23 25 26 23 22 20 19 18 17 16 15 15 18 17 16 16 12 11 10 8 8 7 7 8 7 6 8 10
25 25 24 25 27 26 24 25 27 27 24 21 21 20 19 20 22 25 25 23 22 21 20 19 18 17 16 16 18 17 17 16 14 11 9 8 8 9 7 6 6 5 6
25 26 26 24 24 25 26 26 26 25 23 22 22 17 17 18 19 21 23 23 23 22 21 20 18 17 17 19 16 17 17 17 14 12 10 9 8 9 7 6 5 4 4
25 25 24 23 26 27 27 26 23 20 19 18 17 16 15 17 18 22 23 26 26 27 24 22 21 20 19 22 22 20 19 16 14 10 9 9 8 7 6 5 5 4 4
25 23 24 24 26 27 27 25 22 18 17 16 15 14 14 13 17 18 18 22 22 23 24 23 25 23 19 17 20 20 18 16 13 10 10 10 8 7 5 5 7 6 5
Wind_Direction
232 216 254 255 278 295 305 316 332 336 342 342 339 334 336 333 329 325 321 317 308 300 291 280 269 259 251 247 249 248 242 238 248 282 228 242 234 220 204 209 208 212 209
224 223 258 248 257 273 294 317 329 337 342 341 329 322 323 318 315 320 322 327 322 306 297 287 276 261 246 242 244 238 239 243 229 207 227 221 202 224 232 218 212 212 205
267 253 253 255 256 269 288 304 322 337 337 331 324 320 319 320 324 333 331 327 329 319 332 316 287 268 259 252 242 236 233 243 224 211 128 311 114 48 110 264 194 170 168
274 267 263 264 260 269 274 292 309 319 324 321 318 318 320 322 328 326 320 326 339 344 333 313 290 273 260 250 244 237 233 230 197 117 109 105 90 73 80 9 287 25 340
283 296 269 265 265 262 265 268 280 295 314 311 307 316 315 317 323 331 329 332 340 350 350 336 320 276 263 250 234 230 224 213 183 162 160 148 134 151 138 209 313 327 316
301 275 276 272 266 262 260 263 274 288 302 308 307 305 311 318 322 331 340 345 343 352 2 359 5 353 25 40 127 111 103 103 141 172 192 213 175 192 157 207 220 215 255
295 294 288 278 274 263 256 254 260 273 281 294 288 293 307 312 314 326 330 341 350 356 2 11 21 27 25 30 82 100 128 139 108 99 113 86 74 73 134 161 141 230 277
296 294 294 291 288 277 259 248 251 261 263 273 278 283 292 298 308 320 326 333 345 360 2 6 19 32 45 67 79 69 69 68 62 68 72 84 69 87 142 141 174 212 237
310 298 293 285 287 283 263 245 240 249 254 257 264 267 273 281 288 308 315 322 334 336 358 13 9 17 31 50 56 62 63 74 67 64 52 66 91 88 86 132 167 204 255
308 300 295 293 292 284 268 246 238 241 246 247 252 257 262 274 285 302 310 315 313 318 328 334 0 22 20 20 34 51 65 92 94 103 114 103 93 53 41 61 84 191 246
317 313 307 303 294 278 262 247 234 234 237 239 241 246 250 253 260 264 276 292 307 314 304 273 305 315 281 283 78 70 73 106 124 121 134 127 132 140 134 131 174 207 250
326 315 311 310 302 288 272 255 243 237 238 238 239 242 242 241 245 250 253 260 264 281 303 308 298 276 312 359 43 108 122 137 118 105 120 119 128 126 124 142 158 185 223
340 343 335 322 313 305 291 275 256 246 240 232 233 237 240 239 240 241 241 245 248 243 233 231 261 284 275 119 65 89 108 100 94 97 118 109 102 116 124 126 178 209 253
341 344 341 337 328 304 292 284 270 251 241 234 233 234 235 237 239 242 242 239 235 242 250 234 212 203 212 225 182 147 109 87 111 140 145 130 128 143 145 250 324 294 289
338 341 338 335 330 321 295 287 280 263 243 234 233 236 238 235 237 240 242 242 239 237 227 231 235 225 212 213 209 201 178 164 145 97 126 103 154 279 333 324 324 325 325
317 322 322 324 321 321 305 294 290 279 254 239 237 239 239 236 235 237 238 242 245 238 235 227 222 222 226 219 206 199 202 200 203 209 243 317 342 340 338 327 332 325 315
307 306 307 311 309 306 299 272 288 287 257 248 244 232 228 227 229 230 231 235 238 241 241 239 238 231 228 218 210 215 211 214 232 239 247 311 327 326 316 306 295 291 282
309 307 310 309 308 307 302 284 275 271 259 245 240 233 228 225 221 221 223 227 231 235 239 239 234 239 237 232 222 212 221 227 232 229 224 252 269 280 275 287 287 289 289
305 303 303 304 306 306 307 290 288 281 259 252 240 234 225 221 216 217 217 218 219 224 228 229 226 227 228 221 219 216 232 251 253 253 256 252 258 261 272 289 298 298 296
307 306 306 305 304 306 311 299 294 292 273 261 252 243 227 220 218 218 214 214 213 217 216 225 228 225 226 219 204 212 230 236 234 235 232 252 252 266 274 287 290 291 298
310 311 309 305 302 307 310 298 297 294 282 275 267 246 233 227 221 214 213 212 210 211 215 217 222 222 219 219 213 211 226 232 234 230 238 241 251 252 275 276 275 280 300
318 316 311 308 307 309 309 297 295 300 298 280 266 255 242 228 217 211 208 209 208 209 211 214 217 221 218 218 218 213 222 224 225 232 238 240 240 256 272 267 268 284 293
319 318 316 312 310 311 309 301 295 303 305 290 276 258 243 231 223 210 206 203 204 206 208 209 211 216 213 218 218 215 217 220 226 235 234 239 246 266 267 260 266 272 281
322 323 321 318 314 315 313 308 311 307 301 289 279 262 245 237 226 219 211 202 200 203 207 207 207 207 205 206 207 208 212 218 223 233 236 233 245 254 246 258 260 262 274
319 320 317 315 312 317 313 316 314 312 302 293 281 265 247 236 231 222 214 212 215 207 201 206 202 196 204 207 203 198 198 204 216 219 222 236 236 231 228 237 248 252 273
322 320 317 317 315 316 314 317 318 312 300 291 284 271 253 242 232 226 225 225 224 217 216 221 224 220 225 208 201 202 203 201 208 212 228 241 239 235 228 247 256 257 266